EN

Hourly Weather Ludhiana

Today, 2 December, Wednesday

Time Temperature Precipitation Wind Pressure Humidity
00:00 +18°C° 0 mm 1 mps 740 mmHg 24%
01:00 +18°C° 0 mm 1 mps 740 mmHg 24%
02:00 +18°C° 0 mm 1 mps 739 mmHg 25%
03:00 +16°C° 0 mm 1 mps 739 mmHg 26%
04:00 +16°C° 0 mm 2 mps 739 mmHg 27%
05:00 +15°C° 0 mm 1 mps 740 mmHg 28%
06:00 +16°C° 0 mm 1 mps 740 mmHg 28%
07:00 +17°C° 0 mm 2 mps 740 mmHg 28%
08:00 +17°C° 0 mm 2 mps 740 mmHg 28%
09:00 +20°C° 0 mm 2 mps 740 mmHg 25%
10:00 +24°C° 0 mm 2 mps 740 mmHg 21%
11:00 +26°C° 0 mm 3 mps 741 mmHg 17%
12:00 +27°C° 0 mm 3 mps 740 mmHg 16%
13:00 +28°C° 0 mm 3 mps 739 mmHg 15%
14:00 +29°C° 0 mm 4 mps 738 mmHg 14%
15:00 +27°C° 0 mm 3 mps 738 mmHg 16%
16:00 +25°C° 0 mm 2 mps 737 mmHg 18%
17:00 +23°C° 0 mm 2 mps 737 mmHg 20%
18:00 +21°C° 0 mm 2 mps 737 mmHg 21%
19:00 +21°C° 0 mm 1 mps 737 mmHg 22%
20:00 +20°C° 0 mm 1 mps 738 mmHg 23%
21:00 +20°C° 0 mm 1 mps 737 mmHg 24%
22:00 +19°C° 0 mm 1 mps 737 mmHg 24%
23:00 +19°C° 0 mm 1 mps 737 mmHg 25%

Tomorrow, 3 December, Thursday

Time Temperature Precipitation Wind Pressure Humidity
00:00 +18°C° 0 mm 1 mps 737 mmHg 26%
01:00 +18°C° 0 mm 1 mps 737 mmHg 28%
02:00 +16°C° 0 mm 1 mps 736 mmHg 29%
03:00 +16°C° 0 mm 1 mps 736 mmHg 30%
04:00 +16°C° 0 mm 1 mps 736 mmHg 31%
05:00 +16°C° 0 mm 1 mps 736 mmHg 32%
06:00 +16°C° 0 mm 1 mps 737 mmHg 32%
07:00 +18°C° 0 mm 1 mps 738 mmHg 32%
08:00 +17°C° 0 mm 0 mps 738 mmHg 32%
09:00 +21°C° 0 mm 1 mps 738 mmHg 29%
10:00 +23°C° 0 mm 1 mps 738 mmHg 25%
11:00 +26°C° 0 mm 1 mps 739 mmHg 22%
12:00 +27°C° 0 mm 1 mps 738 mmHg 20%
13:00 +26°C° 0 mm 0 mps 738 mmHg 19%
14:00 +27°C° 0 mm 0 mps 737 mmHg 17%
15:00 +25°C° 0 mm 0 mps 737 mmHg 19%
16:00 +23°C° 0 mm 0 mps 737 mmHg 21%
17:00 +21°C° 0 mm 0 mps 737 mmHg 24%
18:00 +20°C° 0 mm 0 mps 737 mmHg 25%
19:00 +22°C° 0 mm 1 mps 737 mmHg 26%
20:00 +21°C° 0 mm 1 mps 738 mmHg 27%
21:00 +19°C° 0 mm 2 mps 738 mmHg 29%
22:00 +19°C° 0 mm 2 mps 738 mmHg 31%
23:00 +18°C° 0 mm 2 mps 738 mmHg 33%

Day after tomorrow, 4 December, Friday

Time Temperature Precipitation Wind Pressure Humidity
00:00 +17°C° 0 mm 2 mps 737 mmHg 36%
01:00 +17°C° 0 mm 2 mps 737 mmHg 39%
02:00 +16°C° 0 mm 2 mps 737 mmHg 42%
03:00 +16°C° 0 mm 2 mps 736 mmHg 44%
04:00 +16°C° 0 mm 2 mps 736 mmHg 46%
05:00 +15°C° 0 mm 2 mps 736 mmHg 48%
06:00 +16°C° 0 mm 2 mps 736 mmHg 47%
07:00 +17°C° 0 mm 2 mps 737 mmHg 46%
08:00 +17°C° 0 mm 2 mps 737 mmHg 45%
09:00 +20°C° 0 mm 2 mps 737 mmHg 39%
10:00 +23°C° 0 mm 2 mps 737 mmHg 33%
11:00 +26°C° 0 mm 2 mps 737 mmHg 27%
12:00 +26°C° 0 mm 2 mps 737 mmHg 25%
13:00 +27°C° 0 mm 2 mps 736 mmHg 23%
14:00 +28°C° 0 mm 1 mps 736 mmHg 20%
15:00 +27°C° 0 mm 1 mps 736 mmHg 23%
16:00 +25°C° 0 mm 1 mps 736 mmHg 26%
17:00 +23°C° 0 mm 1 mps 736 mmHg 28%
18:00 +23°C° 0 mm 2 mps 736 mmHg 30%
19:00 +21°C° 0 mm 2 mps 736 mmHg 31%
20:00 +20°C° 0 mm 2 mps 737 mmHg 32%
21:00 +19°C° 0 mm 2 mps 737 mmHg 34%
22:00 +19°C° 0 mm 3 mps 737 mmHg 36%
23:00 +18°C° 0 mm 3 mps 737 mmHg 38%

5 December, Saturday

Time Temperature Precipitation Wind Pressure Humidity
00:00 +17°C° 0 mm 3 mps 737 mmHg 40%
01:00 +17°C° 0 mm 3 mps 736 mmHg 42%
02:00 +16°C° 0 mm 2 mps 736 mmHg 43%
03:00 +16°C° 0 mm 2 mps 736 mmHg 45%
04:00 +16°C° 0 mm 2 mps 736 mmHg 46%
05:00 +15°C° 0 mm 2 mps 736 mmHg 47%
06:00 +16°C° 0 mm 2 mps 737 mmHg 46%
07:00 +17°C° 0 mm 3 mps 737 mmHg 45%
08:00 +17°C° 0 mm 3 mps 738 mmHg 44%
09:00 +20°C° 0 mm 3 mps 738 mmHg 38%
10:00 +24°C° 0 mm 3 mps 738 mmHg 32%
11:00 +26°C° 0 mm 4 mps 738 mmHg 26%
12:00 +27°C° 0 mm 4 mps 738 mmHg 25%
13:00 +28°C° 0 mm 3 mps 737 mmHg 23%
14:00 +29°C° 0 mm 3 mps 737 mmHg 21%
15:00 +27°C° 0 mm 2 mps 737 mmHg 24%
16:00 +25°C° 0 mm 2 mps 737 mmHg 27%
17:00 +24°C° 0 mm 1 mps 736 mmHg 30%
18:00 +23°C° 0 mm 1 mps 737 mmHg 32%
19:00 +22°C° 0 mm 1 mps 737 mmHg 33%
20:00 +21°C° 0 mm 1 mps 738 mmHg 35%
21:00 +20°C° 0 mm 2 mps 738 mmHg 37%
22:00 +19°C° 0 mm 2 mps 738 mmHg 38%
23:00 +18°C° 0 mm 2 mps 738 mmHg 40%

6 December, Sunday

Time Temperature Precipitation Wind Pressure Humidity
00:00 +18°C° 0 mm 2 mps 738 mmHg 41%
01:00 +17°C° 0 mm 2 mps 738 mmHg 42%
02:00 +17°C° 0 mm 2 mps 738 mmHg 43%
03:00 +16°C° 0 mm 1 mps 738 mmHg 44%
04:00 +16°C° 0 mm 1 mps 738 mmHg 44%
05:00 +16°C° 0 mm 1 mps 738 mmHg 45%
06:00 +16°C° 0 mm 1 mps 739 mmHg 44%
07:00 +18°C° 0 mm 1 mps 739 mmHg 42%
08:00 +19°C° 0 mm 1 mps 740 mmHg 41%
09:00 +21°C° 0 mm 1 mps 740 mmHg 36%
10:00 +24°C° 0 mm 1 mps 740 mmHg 31%
11:00 +26°C° 0 mm 1 mps 740 mmHg 27%
12:00 +27°C° 0 mm 1 mps 740 mmHg 25%
13:00 +27°C° 0 mm 1 mps 739 mmHg 23%
14:00 +28°C° 0 mm 2 mps 738 mmHg 22%
15:00 +26°C° 0 mm 2 mps 738 mmHg 25%
16:00 +25°C° 0 mm 1 mps 738 mmHg 27%
17:00 +23°C° 0 mm 1 mps 738 mmHg 30%
18:00 +22°C° 0 mm 1 mps 738 mmHg 32%
19:00 +21°C° 0 mm 1 mps 739 mmHg 34%
20:00 +20°C° 0 mm 1 mps 739 mmHg 35%
21:00 +20°C° 0 mm 1 mps 739 mmHg 36%
22:00 +19°C° 0 mm 1 mps 739 mmHg 38%
23:00 +18°C° 0 mm 2 mps 739 mmHg 39%

7 December, Monday

Time Temperature Precipitation Wind Pressure Humidity
00:00 +17°C° 0 mm 2 mps 739 mmHg 38%
01:00 +17°C° 0 mm 2 mps 739 mmHg 38%
02:00 +16°C° 0 mm 2 mps 739 mmHg 38%
03:00 +16°C° 0 mm 2 mps 739 mmHg 38%
04:00 +16°C° 0 mm 2 mps 739 mmHg 38%
05:00 +16°C° 0 mm 2 mps 739 mmHg 38%
06:00 +16°C° 0 mm 1 mps 739 mmHg 37%
07:00 +18°C° 0 mm 1 mps 740 mmHg 36%
08:00 +18°C° 0 mm 1 mps 740 mmHg 35%
09:00 +20°C° 0 mm 2 mps 740 mmHg 31%
10:00 +23°C° 0 mm 2 mps 740 mmHg 27%
11:00 +26°C° 0 mm 2 mps 741 mmHg 23%
12:00 +27°C° 0 mm 3 mps 740 mmHg 21%
13:00 +28°C° 0 mm 3 mps 740 mmHg 20%
14:00 +29°C° 0 mm 3 mps 739 mmHg 19%
15:00 +27°C° 0 mm 3 mps 739 mmHg 21%
16:00 +25°C° 0 mm 2 mps 739 mmHg 24%
17:00 +24°C° 0 mm 2 mps 739 mmHg 26%
18:00 +23°C° 0 mm 2 mps 739 mmHg 27%
19:00 +21°C° 0 mm 2 mps 740 mmHg 29%
20:00 +20°C° 0 mm 2 mps 740 mmHg 30%
21:00 +19°C° 0 mm 2 mps 740 mmHg 31%
22:00 +19°C° 0 mm 2 mps 740 mmHg 31%
23:00 +18°C° 0 mm 2 mps 740 mmHg 32%
Show more